When you browse on this site, cookies collect data to enhance your experience and personalize the content and advertising you see.
Visit our Privacy Policy to learn more. By continuing to use the site, you agree to this use of cookies and data.
  • în România
  • Lista ţărilor
  • Pe 7 zile
  • Temperatura apei
  • Hartă satelitară
  • Meteo pe hartă
  • Widget-uri
  • user-avatar
    Intrare

    Meteo pe oră la Kipungo

    Astăzi, 10 Decembrie, Luni

    Timp Temperatura Precipitaţii Vânt Presiune Umiditate
    00:00 +19°C° 0 mm 2 m/s 653 mmHg 72%
    01:00 +19°C° 0 mm 2 m/s 653 mmHg 78%
    02:00 +18°C° 0 mm 2 m/s 653 mmHg 79%
    03:00 +19°C° 0 mm 1 m/s 653 mmHg 81%
    04:00 +18°C° 0 mm 1 m/s 653 mmHg 83%
    05:00 +19°C° 0 mm 1 m/s 654 mmHg 76%
    06:00 +20°C° 0 mm 1 m/s 654 mmHg 69%
    07:00 +22°C° 0 mm 1 m/s 655 mmHg 59%
    08:00 +26°C° 0 mm 1 m/s 656 mmHg 48%
    09:00 +29°C° 0 mm 1 m/s 657 mmHg 37%
    10:00 +32°C° 0 mm 1 m/s 658 mmHg 26%
    11:00 +34°C° 0 mm 1 m/s 657 mmHg 23%
    12:00 +35°C° 0 mm 1 m/s 657 mmHg 21%
    13:00 +36°C° 0 mm 2 m/s 657 mmHg 24%
    14:00 +35°C° 0 mm 2 m/s 656 mmHg 25%
    15:00 +34°C° 0 mm 2 m/s 655 mmHg 26%
    16:00 +33°C° 0 mm 3 m/s 655 mmHg 27%
    17:00 +30°C° 0 mm 3 m/s 654 mmHg 32%
    18:00 +29°C° 0 mm 3 m/s 654 mmHg 38%
    19:00 +27°C° 0 mm 4 m/s 654 mmHg 44%
    20:00 +25°C° 0 mm 3 m/s 655 mmHg 50%
    21:00 +24°C° 0 mm 3 m/s 655 mmHg 57%
    22:00 +22°C° 0 mm 3 m/s 655 mmHg 63%
    23:00 +21°C° 0 mm 3 m/s 655 mmHg 67%

    Mâine, 11 Decembrie, Marţi

    Timp Temperatura Precipitaţii Vânt Presiune Umiditate
    00:00 +20°C° 0 mm 2 m/s 655 mmHg 71%
    01:00 +19°C° 0 mm 2 m/s 655 mmHg 75%
    02:00 +19°C° 0 mm 2 m/s 654 mmHg 76%
    03:00 +18°C° 0 mm 2 m/s 654 mmHg 77%
    04:00 +18°C° 0 mm 2 m/s 654 mmHg 79%
    05:00 +19°C° 0 mm 2 m/s 654 mmHg 72%
    06:00 +20°C° 0 mm 2 m/s 655 mmHg 65%
    07:00 +21°C° 0 mm 2 m/s 655 mmHg 58%
    08:00 +26°C° 0 mm 2 m/s 656 mmHg 48%
    09:00 +29°C° 0 mm 2 m/s 657 mmHg 37%
    10:00 +34°C° 0 mm 2 m/s 658 mmHg 26%
    11:00 +35°C° 0 mm 1 m/s 658 mmHg 23%
    12:00 +37°C° 0 mm 1 m/s 658 mmHg 20%
    13:00 +40°C° 0 mm 1 m/s 657 mmHg 17%
    14:00 +37°C° 0 mm 1 m/s 656 mmHg 19%
    15:00 +35°C° 0 mm 2 m/s 655 mmHg 22%
    16:00 +32°C° 0 mm 2 m/s 654 mmHg 24%
    17:00 +31°C° 0 mm 3 m/s 654 mmHg 29%
    18:00 +29°C° 0 mm 3 m/s 654 mmHg 33%
    19:00 +28°C° 0 mm 4 m/s 654 mmHg 38%
    20:00 +26°C° 0 mm 4 m/s 654 mmHg 46%
    21:00 +24°C° 0 mm 3 m/s 655 mmHg 54%
    22:00 +22°C° 0 mm 3 m/s 655 mmHg 62%
    23:00 +21°C° 0 mm 3 m/s 655 mmHg 67%

    Poimâine, 12 Decembrie, Miercuri

    Timp Temperatura Precipitaţii Vânt Presiune Umiditate
    00:00 +20°C° 0 mm 2 m/s 654 mmHg 71%
    01:00 +19°C° 0 mm 2 m/s 654 mmHg 76%
    02:00 +18°C° 0 mm 2 m/s 653 mmHg 79%
    03:00 +18°C° 0 mm 1 m/s 653 mmHg 82%
    04:00 +18°C° 0 mm 1 m/s 653 mmHg 85%
    05:00 +19°C° 0 mm 1 m/s 653 mmHg 77%
    06:00 +21°C° 0 mm 1 m/s 654 mmHg 70%
    07:00 +22°C° 0 mm 1 m/s 655 mmHg 62%
    08:00 +26°C° 0 mm 1 m/s 656 mmHg 49%
    09:00 +29°C° 0 mm 1 m/s 657 mmHg 35%
    10:00 +33°C° 0 mm 1 m/s 657 mmHg 22%
    11:00 +34°C° 0 mm 1 m/s 657 mmHg 19%
    12:00 +37°C° 0 mm 2 m/s 657 mmHg 16%
    13:00 +39°C° 0 mm 2 m/s 656 mmHg 13%
    14:00 +37°C° 0 mm 1 m/s 656 mmHg 13%
    15:00 +37°C° 0 mm 1 m/s 655 mmHg 13%
    16:00 +37°C° 0 mm 1 m/s 654 mmHg 13%
    17:00 +35°C° 0 mm 2 m/s 654 mmHg 17%
    18:00 +31°C° 0 mm 2 m/s 654 mmHg 21%
    19:00 +29°C° 0 mm 3 m/s 654 mmHg 25%
    20:00 +27°C° 0 mm 3 m/s 654 mmHg 34%
    21:00 +25°C° 0 mm 3 m/s 654 mmHg 43%
    22:00 +22°C° 0 mm 3 m/s 655 mmHg 51%
    23:00 +21°C° 0 mm 3 m/s 654 mmHg 55%

    13 Decembrie, Joi

    Timp Temperatura Precipitaţii Vânt Presiune Umiditate
    00:00 +20°C° 0 mm 3 m/s 654 mmHg 59%
    01:00 +20°C° 0 mm 2 m/s 653 mmHg 63%
    02:00 +19°C° 0 mm 2 m/s 653 mmHg 67%
    03:00 +19°C° 0 mm 1 m/s 653 mmHg 70%
    04:00 +18°C° 0 mm 1 m/s 653 mmHg 74%
    05:00 +19°C° 0 mm 1 m/s 654 mmHg 69%
    06:00 +21°C° 0 mm 1 m/s 654 mmHg 65%
    07:00 +22°C° 0 mm 1 m/s 655 mmHg 60%
    08:00 +26°C° 0 mm 2 m/s 656 mmHg 45%
    09:00 +29°C° 0 mm 3 m/s 657 mmHg 31%
    10:00 +34°C° 0 mm 3 m/s 657 mmHg 16%
    11:00 +36°C° 0 mm 3 m/s 657 mmHg 15%
    12:00 +37°C° 0 mm 3 m/s 656 mmHg 14%
    13:00 +39°C° 0 mm 3 m/s 656 mmHg 13%
    14:00 +38°C° 0 mm 3 m/s 655 mmHg 15%
    15:00 +37°C° 0 mm 3 m/s 654 mmHg 17%
    16:00 +36°C° 0 mm 3 m/s 654 mmHg 18%
    17:00 +34°C° 0 mm 2 m/s 654 mmHg 21%
    18:00 +31°C° 0 mm 2 m/s 654 mmHg 23%
    19:00 +29°C° 0 mm 2 m/s 654 mmHg 26%
    20:00 +27°C° 0 mm 2 m/s 654 mmHg 29%
    21:00 +26°C° 0 mm 3 m/s 654 mmHg 33%
    22:00 +24°C° 0 mm 3 m/s 654 mmHg 37%
    23:00 +23°C° 0 mm 2 m/s 654 mmHg 40%

    14 Decembrie, Vineri

    Timp Temperatura Precipitaţii Vânt Presiune Umiditate
    00:00 +21°C° 0 mm 2 m/s 654 mmHg 43%
    01:00 +21°C° 0 mm 2 m/s 654 mmHg 46%
    02:00 +20°C° 0 mm 2 m/s 654 mmHg 47%
    03:00 +20°C° 0 mm 2 m/s 654 mmHg 48%
    04:00 +20°C° 0 mm 2 m/s 654 mmHg 49%
    05:00 +21°C° 0 mm 2 m/s 654 mmHg 46%
    06:00 +23°C° 0 mm 1 m/s 655 mmHg 43%
    07:00 +24°C° 0 mm 1 m/s 656 mmHg 39%
    08:00 +26°C° 0 mm 1 m/s 656 mmHg 34%
    09:00 +29°C° 0 mm 1 m/s 656 mmHg 28%
    10:00 +31°C° 0 mm 1 m/s 657 mmHg 22%
    11:00 +34°C° 0 mm 2 m/s 656 mmHg 19%
    12:00 +36°C° 0 mm 2 m/s 656 mmHg 17%
    13:00 +38°C° 0 mm 3 m/s 655 mmHg 14%
    14:00 +38°C° 0 mm 3 m/s 655 mmHg 15%
    15:00 +37°C° 0 mm 3 m/s 654 mmHg 16%
    16:00 +37°C° 0 mm 3 m/s 654 mmHg 16%
    17:00 +34°C° 0 mm 2 m/s 654 mmHg 19%
    18:00 +31°C° 0 mm 2 m/s 654 mmHg 22%
    19:00 +29°C° 0 mm 2 m/s 654 mmHg 25%
    20:00 +28°C° 0 mm 2 m/s 654 mmHg 31%
    21:00 +26°C° 0 mm 2 m/s 654 mmHg 36%
    22:00 +24°C° 0 mm 3 m/s 654 mmHg 42%
    23:00 +24°C° 0 mm 2 m/s 654 mmHg 46%

    15 Decembrie, Sâmbătă

    Timp Temperatura Precipitaţii Vânt Presiune Umiditate
    00:00 +23°C° 0 mm 2 m/s 653 mmHg 50%
    01:00 +21°C° 0 mm 2 m/s 653 mmHg 55%
    02:00 +20°C° 0 mm 2 m/s 653 mmHg 58%
    03:00 +20°C° 0 mm 2 m/s 653 mmHg 61%
    04:00 +20°C° 0 mm 1 m/s 653 mmHg 64%
    05:00 +21°C° 0 mm 1 m/s 653 mmHg 59%
    06:00 +22°C° 0 mm 1 m/s 654 mmHg 54%
    07:00 +23°C° 0 mm 1 m/s 655 mmHg 50%
    08:00 +27°C° 0 mm 1 m/s 656 mmHg 41%
    09:00 +31°C° 0 mm 1 m/s 656 mmHg 32%
    10:00 +35°C° 0 mm 1 m/s 657 mmHg 23%
    11:00 +36°C° 0 mm 1 m/s 657 mmHg 21%
    12:00 +38°C° 0 mm 2 m/s 656 mmHg 19%
    13:00 +39°C° 0 mm 2 m/s 656 mmHg 17%
    14:00 +38°C° 0 mm 2 m/s 655 mmHg 18%
    15:00 +37°C° 0 mm 2 m/s 654 mmHg 19%
    16:00 +36°C° 0 mm 2 m/s 654 mmHg 21%
    17:00 +34°C° 0 mm 2 m/s 654 mmHg 25%
    18:00 +31°C° 0 mm 2 m/s 654 mmHg 29%
    19:00 +29°C° 0 mm 2 m/s 654 mmHg 34%
    20:00 +27°C° 0 mm 3 m/s 654 mmHg 38%
    21:00 +26°C° 0 mm 3 m/s 654 mmHg 42%
    22:00 +24°C° 0 mm 3 m/s 654 mmHg 46%
    23:00 +23°C° 0 mm 2 m/s 654 mmHg 49%
    Arată mai mult